Location: Newark
(50.4348°N, 30.5552°E)
Time: 22:55:06
(UTC+00:00)

Explorer 11/Cluster Stage 4 - All Passes

Search period start: 19 January 2020 00:00
Search period end: 29 January 2020 00:00
Orbit: 467 x 1259 km, 28.8° (Epoch: 19 January)

Date Brightness Start Highest point End Pass type
(mag) Time Alt. Az. Time Alt. Az. Time Alt. Az.
23 Jan - 14:11:01 10° SSW 14:12:42 11° S 14:14:19 10° SSE daylight
24 Jan - 13:59:16 10° SSW 14:01:42 12° S 14:04:02 10° SSE daylight
25 Jan - 12:01:58 10° S 12:03:08 10° SSE 12:04:17 10° SSE daylight
25 Jan - 13:47:46 10° SSW 13:50:41 12° S 13:53:29 10° SSE daylight
26 Jan - 11:49:41 10° S 11:52:04 11° SSE 11:54:26 10° SSE daylight
26 Jan - 13:36:24 10° SSW 13:39:39 13° S 13:42:45 10° SSE daylight
27 Jan - 11:37:57 10° SSW 11:41:00 12° S 11:44:00 10° SSE daylight
27 Jan - 13:25:10 10° SSW 13:28:36 13° S 13:31:55 10° SSE daylight
28 Jan - 11:26:27 10° SSW 11:29:55 13° S 11:33:21 10° SE daylight
28 Jan - 13:14:01 10° SW 13:17:32 13° S 13:20:58 10° SSE daylight
